• In Österreich
  • Länderverzeichnis
  • Für 7 Tage
  • Wassertemperatur
  • Satellitenkarten
  • Wetterkarte
  • News
  • Widgets
  • user-avatar
    Anmelden

    Stündliche Wetter Rawson

    Heute, 20 Juli, Freitag

    Zeit Temperatur Niederschläge Wind Luftdruck Luftfeuchtigkeit
    00:00 +2°C° 0 mm 8 m/S 769 mmHg 77%
    01:00 +2°C° 0 mm 8 m/S 769 mmHg 78%
    02:00 +1°C° 0 mm 8 m/S 768 mmHg 79%
    03:00 +2°C° 0 mm 7 m/S 768 mmHg 80%
    04:00 +2°C° 0 mm 7 m/S 767 mmHg 80%
    05:00 +2°C° 0 mm 7 m/S 767 mmHg 81%
    06:00 0°C° 0 mm 7 m/S 766 mmHg 82%
    07:00 0°C° 0 mm 7 m/S 766 mmHg 83%
    08:00 +1°C° 0 mm 6 m/S 766 mmHg 83%
    09:00 +2°C° 0 mm 6 m/S 765 mmHg 78%
    10:00 +3°C° 0 mm 6 m/S 765 mmHg 72%
    11:00 +4°C° 0 mm 6 m/S 765 mmHg 67%
    12:00 +5°C° 0 mm 5 m/S 764 mmHg 62%
    13:00 +6°C° 0 mm 5 m/S 763 mmHg 57%
    14:00 +6°C° 0 mm 5 m/S 762 mmHg 53%
    15:00 +6°C° 0 mm 4 m/S 761 mmHg 55%
    16:00 +6°C° 0 mm 4 m/S 761 mmHg 57%
    17:00 +5°C° 0 mm 3 m/S 760 mmHg 58%
    18:00 +5°C° 0 mm 3 m/S 760 mmHg 61%
    19:00 +5°C° 0 mm 2 m/S 760 mmHg 65%
    20:00 +5°C° 0 mm 2 m/S 759 mmHg 68%
    21:00 +4°C° 0 mm 2 m/S 759 mmHg 68%
    22:00 +4°C° 0 mm 2 m/S 759 mmHg 68%
    23:00 +3°C° 0 mm 3 m/S 758 mmHg 68%

    Morgen, 21 Juli, Samstag

    Zeit Temperatur Niederschläge Wind Luftdruck Luftfeuchtigkeit
    00:00 +3°C° 0 mm 3 m/S 758 mmHg 65%
    01:00 +3°C° 0 mm 4 m/S 757 mmHg 63%
    02:00 +2°C° 0 mm 5 m/S 756 mmHg 60%
    03:00 +3°C° 0 mm 5 m/S 756 mmHg 57%
    04:00 +3°C° 0 mm 5 m/S 755 mmHg 54%
    05:00 +3°C° 0 mm 5 m/S 755 mmHg 50%
    06:00 +3°C° 0 mm 5 m/S 754 mmHg 50%
    07:00 +4°C° 0 mm 4 m/S 754 mmHg 50%
    08:00 +4°C° 0 mm 4 m/S 754 mmHg 50%
    09:00 +6°C° 0 mm 4 m/S 753 mmHg 47%
    10:00 +8°C° 0 mm 3 m/S 753 mmHg 44%
    11:00 +10°C° 0 mm 2 m/S 753 mmHg 40%
    12:00 +12°C° 0 mm 2 m/S 752 mmHg 40%
    13:00 +12°C° 0 mm 2 m/S 752 mmHg 39%
    14:00 +13°C° 0 mm 2 m/S 751 mmHg 38%
    15:00 +12°C° 0 mm 2 m/S 751 mmHg 43%
    16:00 +12°C° 0 mm 2 m/S 751 mmHg 47%
    17:00 +10°C° 0 mm 2 m/S 751 mmHg 52%
    18:00 +10°C° 0 mm 3 m/S 751 mmHg 55%
    19:00 +9°C° 0 mm 3 m/S 751 mmHg 58%
    20:00 +8°C° 0 mm 4 m/S 752 mmHg 61%
    21:00 +7°C° 0,2 mm 5 m/S 752 mmHg 59%
    22:00 +6°C° 0,2 mm 7 m/S 753 mmHg 58%
    23:00 +6°C° 0,2 mm 8 m/S 753 mmHg 56%

    übermorgen, 22 Juli, Sonntag

    Zeit Temperatur Niederschläge Wind Luftdruck Luftfeuchtigkeit
    00:00 +5°C° 0 mm 9 m/S 754 mmHg 53%
    01:00 +5°C° 0 mm 9 m/S 754 mmHg 49%
    02:00 +3°C° 0 mm 10 m/S 755 mmHg 45%
    03:00 +2°C° 0 mm 10 m/S 755 mmHg 47%
    04:00 +1°C° 0 mm 10 m/S 756 mmHg 49%
    05:00 +1°C° 0 mm 10 m/S 756 mmHg 51%
    06:00 0°C° 0 mm 10 m/S 757 mmHg 53%
    07:00 0°C° 0 mm 9 m/S 758 mmHg 55%
    08:00 0°C° 0 mm 9 m/S 759 mmHg 57%
    09:00 +1°C° 0 mm 9 m/S 760 mmHg 52%
    10:00 +1°C° 0 mm 9 m/S 761 mmHg 47%
    11:00 +2°C° 0 mm 10 m/S 762 mmHg 42%
    12:00 +3°C° 0 mm 9 m/S 762 mmHg 39%
    13:00 +3°C° 0 mm 9 m/S 762 mmHg 36%
    14:00 +5°C° 0 mm 9 m/S 763 mmHg 34%
    15:00 +3°C° 0 mm 9 m/S 763 mmHg 34%
    16:00 +4°C° 0 mm 8 m/S 764 mmHg 35%
    17:00 +4°C° 0 mm 7 m/S 764 mmHg 35%
    18:00 +3°C° 0 mm 7 m/S 765 mmHg 38%
    19:00 +3°C° 0 mm 7 m/S 765 mmHg 41%
    20:00 +2°C° 0 mm 6 m/S 766 mmHg 43%
    21:00 +2°C° 0 mm 7 m/S 766 mmHg 47%
    22:00 +2°C° 0 mm 7 m/S 766 mmHg 50%
    23:00 +2°C° 0 mm 7 m/S 767 mmHg 53%

    23 Juli, Montag

    Zeit Temperatur Niederschläge Wind Luftdruck Luftfeuchtigkeit
    00:00 +2°C° 0 mm 7 m/S 767 mmHg 55%
    01:00 +1°C° 0 mm 8 m/S 767 mmHg 57%
    02:00 +1°C° 0 mm 8 m/S 767 mmHg 59%
    03:00 +1°C° 0 mm 9 m/S 767 mmHg 58%
    04:00 +1°C° 0 mm 9 m/S 767 mmHg 57%
    05:00 +1°C° 0 mm 9 m/S 767 mmHg 55%
    06:00 +1°C° 0 mm 9 m/S 767 mmHg 55%
    07:00 +1°C° 0 mm 9 m/S 768 mmHg 55%
    08:00 +1°C° 0 mm 9 m/S 768 mmHg 55%
    09:00 +3°C° 0 mm 9 m/S 768 mmHg 50%
    10:00 +6°C° 0 mm 10 m/S 768 mmHg 46%
    11:00 +7°C° 0 mm 10 m/S 768 mmHg 42%
    12:00 +8°C° 0 mm 9 m/S 768 mmHg 41%
    13:00 +10°C° 0 mm 8 m/S 768 mmHg 39%
    14:00 +11°C° 0 mm 8 m/S 767 mmHg 38%
    15:00 +10°C° 0 mm 6 m/S 767 mmHg 40%
    16:00 +10°C° 0 mm 5 m/S 767 mmHg 43%
    17:00 +10°C° 0 mm 4 m/S 768 mmHg 46%
    18:00 +10°C° 0 mm 4 m/S 768 mmHg 47%
    19:00 +9°C° 0 mm 3 m/S 768 mmHg 49%
    20:00 +8°C° 0 mm 3 m/S 768 mmHg 50%
    21:00 +7°C° 0 mm 4 m/S 768 mmHg 50%
    22:00 +7°C° 0 mm 4 m/S 768 mmHg 50%
    23:00 +7°C° 0 mm 4 m/S 768 mmHg 50%

    24 Juli, Dienstag

    Zeit Temperatur Niederschläge Wind Luftdruck Luftfeuchtigkeit
    00:00 +6°C° 0 mm 5 m/S 768 mmHg 49%
    01:00 +6°C° 0 mm 5 m/S 767 mmHg 48%
    02:00 +5°C° 0 mm 5 m/S 767 mmHg 47%
    03:00 +4°C° 0 mm 6 m/S 767 mmHg 48%
    04:00 +4°C° 0 mm 6 m/S 766 mmHg 48%
    05:00 +3°C° 0 mm 7 m/S 766 mmHg 49%
    06:00 +3°C° 0 mm 7 m/S 766 mmHg 49%
    07:00 +3°C° 0 mm 7 m/S 766 mmHg 49%
    08:00 +3°C° 0 mm 7 m/S 766 mmHg 49%
    09:00 +5°C° 0 mm 8 m/S 766 mmHg 44%
    10:00 +6°C° 0 mm 9 m/S 766 mmHg 39%
    11:00 +8°C° 0 mm 10 m/S 766 mmHg 34%
    12:00 +11°C° 0 mm 10 m/S 766 mmHg 31%
    13:00 +12°C° 0 mm 10 m/S 766 mmHg 28%
    14:00 +14°C° 0 mm 10 m/S 765 mmHg 24%
    15:00 +13°C° 0 mm 10 m/S 765 mmHg 26%
    16:00 +12°C° 0 mm 10 m/S 765 mmHg 28%
    17:00 +11°C° 0 mm 10 m/S 765 mmHg 30%
    18:00 +9°C° 0 mm 10 m/S 765 mmHg 34%
    19:00 +8°C° 0 mm 11 m/S 765 mmHg 37%
    20:00 +7°C° 0 mm 12 m/S 765 mmHg 40%
    21:00 +7°C° 0 mm 12 m/S 765 mmHg 42%
    22:00 +5°C° 0 mm 12 m/S 765 mmHg 43%
    23:00 +5°C° 0 mm 12 m/S 765 mmHg 45%

    25 Juli, Mittwoch

    Zeit Temperatur Niederschläge Wind Luftdruck Luftfeuchtigkeit
    00:00 +5°C° 0 mm 12 m/S 765 mmHg 46%
    01:00 +5°C° 0 mm 12 m/S 764 mmHg 47%
    02:00 +4°C° 0 mm 12 m/S 764 mmHg 48%
    03:00 +4°C° 0 mm 11 m/S 764 mmHg 50%
    04:00 +4°C° 0 mm 11 m/S 764 mmHg 51%
    05:00 +3°C° 0 mm 11 m/S 764 mmHg 52%
    06:00 +3°C° 0 mm 11 m/S 764 mmHg 54%
    07:00 +3°C° 0 mm 11 m/S 764 mmHg 55%
    08:00 +3°C° 0 mm 12 m/S 764 mmHg 56%
    09:00 +4°C° 0 mm 12 m/S 764 mmHg 52%
    10:00 +5°C° 0 mm 12 m/S 764 mmHg 49%
    11:00 +8°C° 0 mm 12 m/S 764 mmHg 46%
    12:00 +9°C° 0 mm 12 m/S 763 mmHg 44%
    13:00 +10°C° 0 mm 12 m/S 763 mmHg 42%
    14:00 +12°C° 0 mm 12 m/S 763 mmHg 40%
    15:00 +10°C° 0 mm 12 m/S 763 mmHg 44%
    16:00 +9°C° 0 mm 12 m/S 763 mmHg 48%
    17:00 +8°C° 0 mm 11 m/S 763 mmHg 52%
    18:00 +8°C° 0 mm 12 m/S 763 mmHg 55%
    19:00 +7°C° 0 mm 12 m/S 763 mmHg 59%
    20:00 +7°C° 0 mm 12 m/S 763 mmHg 62%
    21:00 +7°C° 0 mm 12 m/S 763 mmHg 63%
    22:00 +7°C° 0 mm 12 m/S 764 mmHg 64%
    23:00 +7°C° 0 mm 12 m/S 764 mmHg 64%
    Mehr zeigen